Location: Newark
(53.3333°N, 83.7500°E)
Time: 08:49:06
(UTC+00:00)

Vanguard 2 - Pass Details

Date: 21 November 2019
Orbit: 553 x 2938 km, 32.9° (Epoch: 11 December)

Event Time Altitude Azimuth Distance (km) Brightness Sun altitude
Rises 05:03:39 0° 243° (WSW) 4,557 11.6 15.4°
Reaches altitude 10° 05:10:06 10° 211° (SSW) 2,903 11.3 15.7°
Maximum altitude 05:11:34 11° 198° (SSW) 2,698 11.5 15.7°
Drops below altitude 10° 05:12:56 10° 185° (S) 2,615 11.9 15.8°
Sets 05:17:26 0° 147° (SSE) 3,134 12.1 15.9°
